Regional Weather Roundup
Issued by NWS

Home | Current Version | Previous Version | Text Only | Print | Product List | Glossary Off
Versions: 1 2 3 4 5 6 7 8 9 10 11 12 13 14 15 16 17 18 19 20 21 22 23 24 25 26 27 28 29 30 31 32 33 34 35 36 37 38 39 40 41 42 43 44 45 46 47 48 49 50

577
ASUS43 KDTX 291510
RWRMI
MICHIGAN HOURLY REGIONAL WEATHER ROUNDUP
NATIONAL WEATHER SERVICE DETROIT/PONTIAC MI
1100 AM EDT FRI JUL 29 2016

NOTE: "FAIR" INDICATES FEW OR NO CLOUDS BELOW 12,000 FEET WITH NO
SIGNIFICANT WEATHER AND/OR OBSTRUCTION TO VISIBILITY.

MIZ047>049-052>055-059>063-066>070-074>076-081>083-291600-
SOUTHEAST LOWER MICHIGAN

CITY           SKY/WX    TMP DP  RH WIND       PRES   REMARKS
ADRIAN         SUNNY     79  66  64 N5        29.96S
ALMA           CLOUDY    72  66  83 NE9       30.01S
ANN ARBOR      SUNNY     77  66  68 CALM      29.96S
BAD AXE        CLOUDY    70  62  75 NE8       30.02S
CARO           CLOUDY    72  62  71 NE6       30.00S
DETROIT CITY   SUNNY     79  66  64 NE8       29.96R
DETROIT        PTSUNNY   80  64  58 CALM      29.95F
FLINT          PTSUNNY   80  63  55 NE10      29.99S
GROSSE ILE     MOSUNNY   79  66  64 NE6       29.94F
HILLSDALE      CLOUDY    74  65  74 CALM      29.97S
HOWELL         MOSUNNY   76  63  63 E7        29.98S

CITY           SKY/WX    TMP DP  RH WIND       PRES   REMARKS
JACKSON        CLOUDY    74  66  76 NE3       29.97F
LAMBERTVILLE   SUNNY     80  67  66 N3        29.95S
LANSING        CLOUDY    73  62  68 NE5       29.99S
LAPEER         CLOUDY    72  63  72 NE6       30.00S
MASON          CLOUDY    74  64  69 N3        29.98S
MONROE         SUNNY     78  69  72 NE3       29.94S
MT. CLEMENS    PTSUNNY   79  67  66 NE7       29.95R
PONTIAC        PTSUNNY   76  64  66 NE10      29.97S
PORT HOPE        N/A     71  62  73 NE17      30.01R
PORT HURON     PTSUNNY   75  64  69 NE7       29.98R
TRI CITIES     PTSUNNY   73  63  70 NE14      30.01S
MIDLAND        CLOUDY    72  63  75 NE12      30.01S
TROY           SUNNY     79  63  58 NE8       29.98S
SAGINAW HB     CLOUDY    73  61  64 NE9       30.00S
$$
MIZ043>046-050>051-056>058-064>065-071>073-077>080-291600-
SOUTHWEST LOWER MICHIGAN

CITY           SKY/WX    TMP DP  RH WIND       PRES   REMARKS
BATTLE CREEK   CLOUDY    67  66  97 CALM      29.99S
BENTON HARBOR  PTSUNNY   75  64  68 E10       29.95R
BIG RAPIDS     CLOUDY    69  66  92 E7        30.02S
COLDWATER      LGT RAIN  67  64  90 NE5       29.97R
FREMONT        FAIR      70  67  89 E6        30.00S
HOLLAND        CLOUDY    72  64  76 E9        29.98S
GRAND RAPIDS   CLOUDY    72  62  71 NE10      29.99S
IONIA          FAIR      71  60  69 NE12      29.99S
KALAMAZOO      TSTM      67  64  90 E5        29.99R FOG
LUDINGTON      PTSUNNY   69  64  85 E8        30.01R
MARSHALL       LGT RAIN  70  66  86 CALM      29.97S
MOUNT PLEASANT CLOUDY    72  65  80 NE7       30.01S
MUSKEGON       CLOUDY    68  65  90 E10       29.99S
SOUTH HAVEN    MOSUNNY   73  66  79 E9        29.96S
$$
MIZ016>042-291600-
NORTHERN LOWER MICHIGAN

CITY           SKY/WX    TMP DP  RH WIND       PRES   REMARKS
ALPENA         MOSUNNY   72  57  59 NE7       30.07F
BEAVER ISLAND  SUNNY     72  60  66 SE7       30.08S
BELLAIRE       SUNNY     75  55  48 NE6       30.04F
CADILLAC       CLOUDY    65  60  84 E10       30.05S
CHARLEVOIX     SUNNY     73  56  55 E9        30.08F
FRANKFORT      PTSUNNY   72  61  68 E8        30.03R
GAYLORD        SUNNY     72  52  49 NE14      30.07F
GRAYLING       MOSUNNY   75  56  52 E9G16     30.06S
HARBOR SPRINGS SUNNY     73  57  58 NE9       30.06F
HOUGHTON LAKE  CLOUDY    70  60  70 E12       30.06S
MANISTEE       CLOUDY    72  63  73 E12       30.01S
OSCODA         PTSUNNY   71  58  64 NE13G18   30.05S
PELLSTON       SUNNY     73  57  57 NE7       30.07F
ROGERS CITY    SUNNY     68  58  69 NE10      30.09S
TRAVERSE CITY  CLOUDY    73  61  65 CALM      30.02F
$$
MIZ007>008-015-291600-
EASTERN UPPER MICHIGAN

CITY           SKY/WX    TMP DP  RH WIND       PRES   REMARKS
KINROSS        SUNNY     69  52  54 VRB6      30.10S
MACKINAC ISLAN SUNNY     67  58  72 E7        30.09S
NEWBERRY       SUNNY     70  54  56 E6        30.10S
S. S. MARIE    SUNNY     71  52  50 E7        30.09F
MUNISING         N/A     72  59  63 NE12      30.09S
$$
MIZ004>006-011>014-085-291600-
CENTRAL UPPER MICHIGAN

CITY           SKY/WX    TMP DP  RH WIND       PRES   REMARKS
MANISTIQUE     SUNNY     71  62  72 E8        30.08S
ESCANABA       SUNNY     72  61  68 E13       30.06S
MENOMINEE      MOSUNNY  N/A N/A N/A E12       30.06R
SAWYER-GWINN   MOSUNNY   66  57  72 NE6       30.10F
$$
MIZ001>003-009>011-084-291600-
WESTERN UPPER MICHIGAN

CITY           SKY/WX    TMP DP  RH WIND       PRES   REMARKS
IRON MOUNTAIN  SUNNY     70  58  65 NE6       30.07F
HOUGHTON       SUNNY     70  55  59 SE5       30.11S
COPPER HARBOR    N/A     67  60  78 E6        30.10F
IRONWOOD       SUNNY     66  55  68 N7        30.09F
$$

ABBREVIATIONS USED IN REMARKS
   TC - TEMPERATURE IN CELSIUS
  WCI - WIND CHILL INDEX
   HX - HEAT INDEX
  VSB - VISIBILITY





USA.gov is the U.S. government's official web portal to all federal, state and local government web resources and services.